{"data":{"norad_id":62674,"epoch":"2026-05-25T05:28:28.278912Z","epoch_age_seconds":65991,"freshness":"FRESH","line1":"1 62674U 25009BT  26145.22810508  .00011186  00000+0  39238-3 0  9999","line2":"2 62674  97.4054 227.7489 0005414  50.5194 309.6524 15.29591827133053","mean_motion":15.29591827,"eccentricity":0.0005414,"inclination_deg":97.4054,"raan_deg":227.7489,"arg_perigee_deg":50.5194,"mean_anomaly_deg":309.6524,"bstar":0.00039238,"rev_number":13305,"period_min":94.142762440375,"perigee_km":473.32017775893,"apogee_km":480.74295428222,"semimajor_km":6855.1685660206,"source":"CELESTRAK","updated_at":"2026-05-25T13:38:03.166279Z"}}